Volver al catálogo

STARK

ActivoCienciaSSO
NORAD 65299·PAYLOAD·🇷🇼 Rwanda

Lanzado Aug 23, 2025 desde Rocket Lab Launch Complex 1

Loading…

Próximos Pases (próximas 24 horas)

TLE

ActualizadoSource: Space-Track

Época: Sep 14, 2026, 05:28 UTC

1 65299U 25185C   26257.22794583  .00001552  00000-0  19693-3 0  9998
2 65299  97.9649 340.4035 0013193 153.5184 206.6706 14.83099806 57041

Sigue STARK en tiempo real con AllMySat

Download on the App Store